Regional Weather Roundup
Issued by NWS

Home | Current Version | Previous Version | Graphics & Text | Print | Product List | Glossary On
Versions: 1 2 3 4 5 6 7 8 9 10 11 12 13 14 15 16 17 18 19 20 21 22 23 24 25 26 27 28 29 30 31 32 33 34 35 36 37 38 39 40 41 42 43 44 45 46 47 48 49 50
000
ASUS43 KDTX 170401
RWRMI
MICHIGAN HOURLY REGIONAL WEATHER ROUNDUP
NATIONAL WEATHER SERVICE DETROIT/PONTIAC MI
1100 PM EST SAT DEC 16 2017

NOTE: "FAIR" INDICATES FEW OR NO CLOUDS BELOW 12,000 FEET WITH NO
SIGNIFICANT WEATHER AND/OR OBSTRUCTION TO VISIBILITY.

MIZ047>049-052>055-059>063-066>070-074>076-081>083-170500-
SOUTHEAST LOWER MICHIGAN

CITY           SKY/WX    TMP DP  RH WIND       PRES   REMARKS
ADRIAN         CLOUDY    24  21  88 E9        30.15R WCI  14
ALMA           CLOUDY    22  19  91 E9        30.16F WCI  11
ANN ARBOR      CLEAR     24  21  88 NE6       30.15R WCI  17
BAD AXE        CLOUDY    22  18  83 NE3       30.20S
CARO           CLOUDY    23  20  89 NE3       30.18R
DETROIT CITY   PTCLDY    24  17  74 NE6       30.17S WCI  17
DETROIT        CLOUDY    27  19  72 NE5       30.17R WCI  22
FLINT          CLOUDY    20  16  84 E9        30.17R WCI   9
GROSSE ILE     CLOUDY    24  20  85 NE7       30.15S WCI  16
HILLSDALE      CLOUDY    25  21  86 E7        30.09S WCI  17
HOWELL         CLOUDY    20  19  97 NE3       30.13R

CITY           SKY/WX    TMP DP  RH WIND       PRES   REMARKS
JACKSON        PTCLDY    26  20  77 E9        30.13R WCI  17
LAMBERTVILLE   CLOUDY    27  24  86 E5        30.15R WCI  22
LANSING        CLOUDY    18  16  92 NE5       30.15R WCI  11
LAPEER         CLOUDY    24  18  77 E3        30.17S
MASON          CLOUDY    20  15  83 NE3       30.14R
MT. CLEMENS    MOCLDY    23  16  75 NE5       30.16S WCI  17
PONTIAC        CLOUDY    21  17  84 E6        30.14R WCI  13
PORT HOPE        N/A     25  19  78 NE8       30.20S WCI  16
PORT HURON     CLOUDY    23  14  68 NE9       30.19S WCI  13
TRI CITIES     LGT SNOW  23  19  85 E10       30.19S FOG     WCI  12
MIDLAND        CLOUDY    22  18  83 NE3       30.19S
TROY           CLOUDY    24  18  77 NE6       30.19R WCI  17
SAGINAW HB     CLOUDY    23  21  93 NE9       30.18F WCI  13
$$
MIZ043>046-050>051-056>058-064>065-071>073-077>080-170500-
SOUTHWEST LOWER MICHIGAN

CITY           SKY/WX    TMP DP  RH WIND       PRES   REMARKS
BATTLE CREEK   CLEAR     26  22  84 E7        30.11R WCI  18
BENTON HARBOR  CLEAR     30  24  78 E7        30.08R WCI  23
BIG RAPIDS     CLOUDY    22  19  86 E8        30.14R WCI  13
COLDWATER      CLOUDY    29  26  88 E6        30.10R WCI  23
HOLLAND        CLOUDY    24  18  77 E8        30.12R WCI  15
GRAND RAPIDS   CLOUDY    22  18  85 E9        30.13R WCI  12
IONIA          FAIR      22  19  89 NE8       30.13S WCI  12
KALAMAZOO      CLOUDY    27  22  81 NE5       30.10R WCI  22
LUDINGTON      CLOUDY    25  20  80 E7        30.15R WCI  17
MARSHALL       CLOUDY    26  24  89 E6        30.11R WCI  20
MOUNT PLEASANT CLOUDY    23  18  81 NE5       30.17R WCI  17
MUSKEGON       PTCLDY    23  17  78 E6        30.15R WCI  16
SOUTH HAVEN    PTCLDY    29  24  80 E6        30.09R WCI  23
$$
MIZ016>042-170500-
NORTHERN LOWER MICHIGAN

CITY           SKY/WX    TMP DP  RH WIND       PRES   REMARKS
ALPENA         CLOUDY    13  10  88 N6        30.25R WCI   4
BEAVER ISLAND  CLOUDY    16  11  83 E8        30.23S WCI   5
BELLAIRE       CLOUDY    16  12  85 NE5       30.23R WCI   9
CADILLAC       CLOUDY    20  16  84 E9        30.12S WCI   9
CHARLEVOIX     CLOUDY    15  10  83 E8        30.26R WCI   3
FRANKFORT      CLOUDY    23  16  73 E3        30.17R
GAYLORD        CLOUDY    10   6  84 E5        30.18R FOG     WCI   2
GRAYLING       CLOUDY    13   8  79 E6        30.19R WCI   4
HARBOR SPRINGS CLOUDY    11   7  81 E8        30.23S WCI   0
HOUGHTON LAKE  CLOUDY    16  11  80 E7        30.18R WCI   6
MANISTEE       CLOUDY    25  20  81 E9        30.16R WCI  15
OSCODA         CLOUDY    16  10  79 N6        30.22S WCI   7
PELLSTON       CLOUDY     9   6  88 CALM      30.25S
ROGERS CITY    CLOUDY    14  10  84 S3        30.26F
TRAVERSE CITY  CLOUDY    20  12  71 E6        30.19R WCI  12
$$
MIZ007>008-015-170500-
EASTERN UPPER MICHIGAN

CITY           SKY/WX    TMP DP  RH WIND       PRES   REMARKS
KINROSS        CLOUDY     3  -4  72 E8        30.26R WCI -10
MACKINAC ISLAN CLOUDY    14  10  83 NE7       30.23F WCI   4
NEWBERRY       CLOUDY     3  -1  81 CALM      30.24R
S. S. MARIE    CLOUDY     4  -6  63 E5        30.28R WCI  -5
MUNISING         N/A     11   8  88 CALM      30.24S
$$
MIZ004>006-011>014-085-170500-
CENTRAL UPPER MICHIGAN

CITY           SKY/WX    TMP DP  RH WIND       PRES   REMARKS
MANISTIQUE     CLOUDY     9   3  76 NE6       30.24R WCI   0
ESCANABA       CLOUDY    15  11  83 NE8       30.22R WCI   4
MENOMINEE      CLOUDY    27  23  85 E9        30.18R WCI  18
$$
MIZ001>003-009>011-084-170500-
WESTERN UPPER MICHIGAN

CITY           SKY/WX    TMP DP  RH WIND       PRES   REMARKS
IRON MOUNTAIN  CLOUDY    17  11  77 SE3       30.15R
HOUGHTON       CLOUDY    19  11  70 SE7       30.14R WCI  10
COPPER HARBOR    N/A     23  15  71 S5        30.17S WCI  17
IRONWOOD       CLOUDY    20  15  81 CALM      30.11R
$$

ABBREVIATIONS USED IN REMARKS
   TC - TEMPERATURE IN CELSIUS
  WCI - WIND CHILL INDEX
   HX - HEAT INDEX
  VSB - VISIBILITY





USA.gov is the U.S. government's official web portal to all federal, state and local government web resources and services.